STARLINK-32258

Last updated on Tue Oct 01 2024 00:02:04 GMT+0000 (Coordinated Universal Time)

1 60939U 24155R 24274.40908473 .00000449 00000+0 16136-4 0 9995 2 60939 53.1601 52.7027 0001585 80.6811 279.4377 15.49317032 5820
UTC large
Height (km)
Speed (km/s)
/
Latitude / Longitude
Inclination (degrees)
Orbital Period (minutes)
Azimuth
Elevation
Range (km)
Doppler Factor

Next 0 passes for location: London (51.5072 / 0.1276)

Sorry there are no passes over London.